[[{"header":{"parameterUnit":"m.s-1","parameterCategory":1,"la1":30.2991,"la2":30.254,"lo1":-89.0895,"lo2":-89.0444,"dy":0.0017,"dx":0.0017,"nx":28,"ny":28,"refTime":"2025-05-28T21:00:00:Z","depth":0,"parameterNumber":2,"parameterNumberName":"U-component_of_WINDS"},"data":[0,0,0,0,0,0,0,0,0,0,0,0,0,0,0,0,0,0,0,0,0,0,0,0,0,0,0,0,0,0,0,0,0,0,0,0,0,0,0,0,0,0,0,0,0,0,0,0,0,0,0,0,0,0,0,0,0,0,3.1606,3.1607,0,3.169,3.1691,3.1692,3.1654,3.1652,3.165,3.1648,3.1734,3.1738,3.1743,0,0,0,0,0,0,0,0,0,0,0,0,0,3.1407,3.1411,3.1606,3.1607,3.1608,3.169,3.1691,3.1693,3.1654,3.1652,3.1649,3.1647,3.1733,3.1738,3.1743,0,0,0,0,0,0,0,0,0,0,0,0,0,3.1493,3.1413,3.1605,3.1599,3.1599,3.169,3.1691,3.1693,3.1655,3.1652,3.1649,3.1646,3.1731,3.1737,3.1744,3.1846,0,0,3.1763,3.1766,0,0,0,0,0,0,0,0,3.1488,3.15,3.1599,3.1599,3.16,3.1658,3.1653,3.1744,3.1656,3.1634,3.1648,3.1644,3.1712,3.1719,3.1742,3.185,3.1854,3.1764,3.1768,3.177,3.1772,0,0,0,0,0,0,0,3.1482,3.1496,3.1639,3.16,3.1601,3.159,3.1599,3.167,3.1689,3.1635,3.1633,3.1643,3.1711,3.1736,3.1744,3.1855,3.1764,3.1769,3.1773,3.1776,3.2045,3.2048,0,0,0,0,0,0,3.1477,3.1492,3.1636,3.1642,3.1535,3.1596,3.1606,3.1643,3.1688,3.1692,3.1646,3.1641,3.1727,3.1736,3.1747,3.1865,3.177,3.1776,3.178,3.2042,3.2046,3.205,0,0,0,0,0,0,3.1473,3.149,3.1633,3.1566,3.1583,3.1603,3.1645,3.1646,3.1671,3.1696,3.1699,3.1668,3.1725,3.1738,3.182,3.1868,3.1779,3.1785,3.2038,3.2043,3.2048,3.2105,0,0,0,0,0,0,3.1467,3.1489,3.1529,3.1567,3.1587,3.1706,3.1648,3.165,3.1682,3.1677,3.1718,3.1722,3.1723,3.1811,3.1827,3.1875,3.179,3.2034,3.204,3.2046,3.2099,3.2112,3.2122,0,0,0,0,0,3.146,3.1543,3.1531,3.1549,3.1638,3.1709,3.1721,3.1721,3.1686,3.1725,3.1741,3.172,3.1861,3.182,3.1837,3.1888,3.2031,3.2039,3.2046,3.2094,3.2109,3.2122,0,0,0,0,0,0,3.1511,3.1548,3.1535,3.1634,3.1668,3.1703,3.1753,3.1738,3.1783,3.1776,3.1775,3.1784,3.1868,3.1887,3.1841,3.1987,3.194,3.1952,3.1971,3.1986,3.1997,3.1989,3.1795,0,0,0,0,0,3.1533,3.1589,3.1618,3.1702,3.172,3.1733,3.1765,3.1761,3.1797,3.1812,3.1834,3.1869,3.192,3.1955,3.2004,3.2103,3.2108,3.2146,3.2157,3.2167,3.2175,3.2224,3.2239,3.2074,3.2074,3.2074,0,0,3.1581,3.1608,3.1643,3.1713,3.1739,3.1794,3.1746,3.1809,3.1849,3.1822,3.1899,3.1917,3.1956,3.2045,3.2086,3.2063,3.2222,3.2176,3.2184,3.2187,3.2233,3.2249,3.2262,3.2079,3.2078,3.2078,0,0,3.1694,3.1722,3.1792,3.1819,3.1859,3.1867,3.1884,3.192,3.193,3.2008,3.1987,3.2035,3.2126,3.2152,3.2178,3.2297,3.2278,3.2314,3.2373,3.242,3.2433,3.2444,3.2482,3.2496,3.2323,3.2323,3.2323,0,3.1747,3.1831,3.183,3.1892,3.1921,3.1898,3.1967,3.1994,3.2048,3.2068,3.2042,3.2151,3.2177,3.227,3.2298,3.2322,3.2338,3.2308,3.2431,3.2443,3.2453,3.2489,3.2504,3.2327,3.2326,3.2326,3.2326,0,3.1891,3.1949,3.2001,3.2052,3.2088,3.2153,3.216,3.2196,3.2189,3.2199,3.2276,3.2306,3.2358,3.238,3.2376,3.2472,3.2455,3.2431,3.2383,3.2472,3.2506,3.252,3.2332,3.2331,3.233,3.2329,0,0,3.2039,3.2087,3.2105,3.2126,3.2167,3.2211,3.2275,3.2325,3.2353,3.2392,3.2442,3.2517,3.2493,3.2522,3.2519,3.2561,3.2648,3.2531,3.2531,3.2547,3.275,3.2765,3.2781,3.2636,3.2639,3.2641,3.2745,0,3.2151,3.2261,3.2261,3.2362,3.2412,3.239,3.2444,3.2474,3.2485,3.2529,3.254,3.2591,3.2558,3.2575,3.2615,3.2629,3.2687,3.2622,3.268,3.2682,3.2667,3.28,3.2817,3.2913,3.2758,3.2761,3.2762,0,3.2298,3.2338,3.2443,3.2473,3.2494,3.2543,3.2586,3.263,3.2662,3.2666,3.2697,3.2687,3.2748,3.2701,3.2784,3.2739,3.2763,3.2772,3.2776,3.2779,3.2725,3.2802,3.2945,3.2958,3.2784,3.2782,3.2781,0,3.2388,3.247,3.2541,3.2561,3.2599,3.2632,3.265,3.2679,3.2708,3.2746,3.2764,3.281,3.2834,3.2868,3.2869,3.2836,3.2951,3.2905,3.2953,3.2953,3.2976,3.2974,3.3121,3.2999,3.2998,3.2998,3.2998,0,3.2511,3.2576,3.2582,3.2626,3.2696,3.2694,3.2763,3.2777,3.2803,3.2848,3.2833,3.2875,3.2876,3.2918,3.292,3.2985,3.2998,3.3001,3.3,3.3,3.2999,3.3013,3.3005,3.3002,3.3001,3.3,3.3,0,3.2624,3.2631,3.2707,3.2736,3.2744,3.2794,3.2818,3.2858,3.2867,3.2923,3.2936,3.2949,3.2998,3.3003,3.3061,3.3062,3.3139,3.3133,3.3127,3.3125,3.3171,3.3165,3.3329,3.3348,3.3217,3.3219,3.322,0,3.27,3.2748,3.2781,3.2809,3.2828,3.2875,3.2903,3.2903,3.2932,3.2971,3.3006,3.3053,3.309,3.3169,3.3182,3.3225,3.3218,3.3272,3.3224,3.3221,3.3213,3.3208,3.3211,3.328,3.3282,3.3283,3.3284,0,3.2833,3.2833,3.2875,3.2917,3.2951,3.2984,3.3015,3.3039,3.3042,3.3076,3.3125,3.3154,3.3211,3.3256,3.3298,3.3314,3.3298,3.3299,3.3312,3.3311,3.3303,3.3303,3.3148,3.3295,3.3294,3.3293,3.3292,3.3292,3.2927,3.2966,3.2994,3.304,3.3063,3.3091,3.3129,3.3141,3.3182,3.3227,3.3225,3.3278,3.3305,3.3359,3.3378,3.3418,3.34,3.342,3.3424,3.3427,3.343,3.33,3.3427,3.3426,3.3426,3.3426,3.3425,0,3.3054,3.3071,3.3113,3.3155,3.319,3.3173,3.3205,3.3235,3.3282,3.3309,3.3345,3.3399,3.3442,3.3459,3.35,3.3529,3.3522,3.3539,3.3535,3.3538,3.3446,3.3429,3.3543,3.3543,3.3543,3.3543,3.3543,3.3543,3.3125,3.319,3.3193,3.3268,3.3284,3.3334,3.3354,3.3379,3.34,3.346,3.3496,3.3506,3.3527,3.357,3.3608,3.3611,3.3625,3.3645,3.3645,3.3557,3.3545,3.3534,3.3517,3.3649,3.3649,3.3733,3.3734,3.3734]},{"header":{"parameterUnit":"m.s-1","parameterCategory":1,"la1":30.2991,"la2":30.254,"lo1":-89.0895,"lo2":-89.0444,"dy":0.0017,"dx":0.0017,"nx":28,"ny":28,"refTime":"2025-05-28T21:00:00:Z","depth":0,"parameterNumber":3,"parameterNumberName":"V-component_of_WINDS"},"data":[0,0,0,0,0,0,0,0,0,0,0,0,0,0,0,0,0,0,0,0,0,0,0,0,0,0,0,0,0,0,0,0,0,0,0,0,0,0,0,0,0,0,0,0,0,0,0,0,0,0,0,0,0,0,0,0,0,0,5.4372,5.4373,0,5.4465,5.4466,5.4467,5.4383,5.438,5.4376,5.4373,5.4464,5.447,5.4475,0,0,0,0,0,0,0,0,0,0,0,0,0,5.4114,5.4119,5.4372,5.4373,5.4374,5.4465,5.4466,5.4468,5.4384,5.438,5.4375,5.4372,5.4463,5.4469,5.4476,0,0,0,0,0,0,0,0,0,0,0,0,0,5.4219,5.4121,5.4372,5.4344,5.4342,5.4465,5.4466,5.4468,5.4385,5.4379,5.4374,5.437,5.446,5.4469,5.4477,5.4631,0,0,5.4503,5.4506,0,0,0,0,0,0,0,0,5.4213,5.4228,5.4347,5.4346,5.4344,5.4407,5.4409,5.4523,5.4386,5.4368,5.4373,5.4367,5.4449,5.4458,5.4487,5.4635,5.4639,5.4503,5.4508,5.4512,5.4514,0,0,0,0,0,0,0,5.4206,5.4224,5.4409,5.4348,5.4347,5.4324,5.4333,5.443,5.4436,5.4369,5.4364,5.4376,5.4448,5.4479,5.4488,5.4641,5.4503,5.4511,5.4516,5.4519,5.4915,5.492,0,0,0,0,0,0,5.4202,5.4218,5.4406,5.4411,5.4265,5.4333,5.4343,5.4392,5.4435,5.4437,5.438,5.4372,5.4467,5.4479,5.4491,5.4671,5.4512,5.452,5.4525,5.4909,5.4916,5.4922,0,0,0,0,0,0,5.4197,5.422,5.4402,5.4313,5.4335,5.4343,5.4399,5.4397,5.4428,5.4443,5.4443,5.4412,5.4464,5.4479,5.4596,5.4673,5.4524,5.4531,5.4903,5.4911,5.4919,5.5034,0,0,0,0,0,0,5.419,5.4218,5.4279,5.4315,5.434,5.4508,5.4403,5.4402,5.4443,5.4433,5.4473,5.4474,5.4461,5.4584,5.4604,5.4682,5.4538,5.4896,5.4907,5.4916,5.5024,5.5045,5.5064,0,0,0,0,0,5.4181,5.4308,5.4283,5.4306,5.4416,5.4513,5.4526,5.4509,5.445,5.4509,5.4518,5.4473,5.4662,5.4597,5.4619,5.47,5.4891,5.4904,5.4916,5.5014,5.5041,5.5064,0,0,0,0,0,0,5.428,5.4313,5.4285,5.4428,5.4468,5.4498,5.4573,5.4539,5.4596,5.4584,5.4559,5.4569,5.4691,5.4707,5.4634,5.4849,5.4766,5.4784,5.4834,5.4859,5.4879,5.4872,5.4545,0,0,0,0,0,5.4319,5.4397,5.442,5.4543,5.4565,5.4566,5.4607,5.459,5.4631,5.4647,5.4665,5.4704,5.4771,5.4816,5.488,5.5026,5.5031,5.5092,5.5112,5.5129,5.5144,5.5217,5.5244,5.4962,5.4962,5.4962,0,0,5.4399,5.4426,5.4477,5.4564,5.4593,5.4671,5.4581,5.4668,5.4724,5.466,5.477,5.4784,5.4826,5.4957,5.5016,5.4974,5.5222,5.5145,5.5158,5.5163,5.5233,5.5259,5.5283,5.4971,5.4969,5.4968,0,0,5.4585,5.4615,5.4719,5.475,5.4795,5.4794,5.4819,5.4854,5.4861,5.4972,5.4924,5.499,5.5108,5.5138,5.5169,5.5363,5.5321,5.5384,5.5489,5.5561,5.5583,5.5603,5.5668,5.5692,5.5399,5.5399,5.5399,0,5.4679,5.4796,5.4777,5.4867,5.4904,5.485,5.4953,5.4983,5.5047,5.5073,5.5026,5.5171,5.5196,5.533,5.5377,5.5406,5.543,5.5379,5.5582,5.5601,5.5619,5.5681,5.5706,5.5406,5.5405,5.5405,5.5404,0,5.4907,5.4989,5.5067,5.5129,5.5176,5.5273,5.5265,5.5314,5.5293,5.5296,5.5406,5.5434,5.55,5.5531,5.5511,5.5662,5.5635,5.5586,5.5502,5.5653,5.5711,5.5735,5.5416,5.5414,5.5412,5.541,0,0,5.5159,5.5207,5.5236,5.5262,5.5306,5.5368,5.546,5.5525,5.5566,5.5611,5.5684,5.5784,5.5738,5.5773,5.5756,5.582,5.5966,5.5762,5.5763,5.5796,5.6129,5.6164,5.6192,5.594,5.5944,5.5948,5.6124,0,5.5343,5.5504,5.5488,5.564,5.5712,5.566,5.5739,5.5773,5.5778,5.5838,5.5842,5.5912,5.5848,5.5868,5.5929,5.5936,5.6032,5.5923,5.6005,5.6008,5.5994,5.6223,5.626,5.6426,5.6147,5.6151,5.6154,0,5.558,5.5633,5.5792,5.5822,5.5851,5.5924,5.5979,5.6039,5.6075,5.6074,5.6112,5.6082,5.6171,5.6086,5.6206,5.6132,5.6164,5.6172,5.6178,5.6183,5.6089,5.6231,5.6479,5.6502,5.619,5.6187,5.6184,0,5.5743,5.5854,5.5962,5.5986,5.6025,5.6076,5.6094,5.6125,5.6164,5.6212,5.6236,5.6295,5.6326,5.637,5.6356,5.6297,5.6477,5.6393,5.6476,5.6476,5.6515,5.6512,5.6768,5.6541,5.654,5.654,5.6539,0,5.5949,5.6048,5.6035,5.6102,5.6209,5.6188,5.6295,5.6306,5.6333,5.6399,5.6357,5.6419,5.6398,5.6458,5.6447,5.6545,5.6561,5.6559,5.6555,5.6562,5.6561,5.6581,5.6568,5.6546,5.6545,5.6544,5.6543,0,5.6149,5.6145,5.6259,5.6286,5.6294,5.6372,5.6393,5.6454,5.6454,5.6537,5.6555,5.6556,5.6623,5.6614,5.669,5.6682,5.6804,5.6787,5.6792,5.6787,5.6869,5.686,5.7145,5.7179,5.6932,5.6935,5.6937,0,5.628,5.6354,5.6388,5.6429,5.645,5.6518,5.6556,5.6537,5.6579,5.6624,5.6678,5.6743,5.6793,5.6903,5.6908,5.6965,5.6947,5.7043,5.6955,5.6958,5.6944,5.6939,5.6945,5.7059,5.7062,5.7065,5.7066,0,5.6511,5.6504,5.6563,5.662,5.6667,5.6711,5.6751,5.6786,5.677,5.6819,5.6888,5.6927,5.7003,5.7066,5.7118,5.7134,5.7097,5.7094,5.7116,5.7122,5.7121,5.7119,5.6836,5.7087,5.7085,5.7084,5.7083,5.7082,5.6677,5.6739,5.6772,5.6837,5.6864,5.6902,5.6959,5.6966,5.7024,5.7084,5.7069,5.7146,5.7176,5.7243,5.7264,5.7322,5.7287,5.7319,5.7327,5.7334,5.7342,5.7114,5.7332,5.7332,5.7331,5.7331,5.733,0,5.6903,5.6921,5.6981,5.7037,5.7087,5.7049,5.709,5.7134,5.7202,5.7234,5.7284,5.7361,5.7421,5.7431,5.7487,5.7531,5.7515,5.7546,5.7541,5.7545,5.7373,5.7347,5.7558,5.7558,5.7558,5.7558,5.7558,5.7558,5.7026,5.7128,5.7125,5.7238,5.7254,5.733,5.7356,5.7388,5.7413,5.7501,5.7551,5.7557,5.7579,5.7636,5.7688,5.7689,5.771,5.7747,5.7741,5.758,5.7557,5.7536,5.7511,5.7753,5.7753,5.7908,5.7909,5.791]}]]